Regional Weather Roundup
Issued by NWS Albany, NY

Home | Current Version | Previous Version | Text Only | Print | Product List | Glossary On
Versions: 1 2 3 4 5 6 7 8 9 10 11 12 13 14 15 16 17 18 19 20 21 22 23 24 25 26 27 28 29 30 31 32 33 34 35 36 37 38 39 40 41 42 43 44 45 46 47 48 49 50
000
ASUS41 KALY 280610
RWRALY

NEW YORK STATE HOURLY WEATHER ROUNDUP
NATIONAL WEATHER SERVICE ALBANY NY
100 AM EST WED JAN 28 2015

NOTE: "FAIR" INDICATES FEW OR NO CLOUDS BELOW 12,000 FEET WITH NO
SIGNIFICANT WEATHER AND/OR NO OBSTRUCTIONS TO VISIBILITY.

NYZ032-033-038>043-046>054-057>066-NYZ062>081-280700-
EAST


CITY           SKY/WX    TMP DP  RH WIND       PRES   REMARKS
ALBANY         CLOUDY    14   3  61 N6        29.88S WCI   5
GLENS FALLS    CLOUDY    16   3  56 NE10      29.88S WCI   4
POUGHKEEPSIE   CLOUDY    16   5  62 NW5       29.85S WCI   9
NEWBURGH       MOCLDY    12   7  79 CALM      29.84S
MONTGOMERY     CLOUDY    11   5  77 W6        29.83F WCI   1
WHITE PLAINS   MOCLDY    14   4  64 NW12      29.81S WCI   0
ISLIP          CLOUDY    16   7  67 NW17G26   29.80R WCI   0
NEW YORK CITY  MOCLDY    18   9  68 N12       29.86R WCI   5
CENTRAL PARK   MOCLDY    18   6  59 N5        29.88R WCI  11
$$

NYZ005>009-017-018-044>046-055-056-280700-
CENTRAL


CITY           SKY/WX    TMP DP  RH WIND       PRES   REMARKS
FULTON         MOCLDY    11  -1  58 N6        30.04S WCI   1
SYRACUSE       MOCLDY     7  -1  70 W5        30.04R WCI  -2
ROME           MOCLDY     8  -4  58 W12       30.01R WCI  -7
ELMIRA         PTCLDY     6   1  80 W8        30.02S WCI  -7
BINGHAMTON     PTCLDY     8  -2  63 NW13      29.88S WCI  -8
MONTICELLO     PTCLDY     9  -2  61 NW15G24   29.80S WCI  -8
$$

NYZ026>034-041>043-280700-
NORTH


CITY           SKY/WX    TMP DP  RH WIND       PRES   REMARKS
WATERTOWN        N/A     -4  -9  79 MISG      30.06R
FORT DRUM      NOT AVBL
MASSENA        MOCLDY     9  -5  53 N5        30.06R WCI   1
SARANAC LAKE   MOCLDY     6  -1  73 N5        29.83S WCI  -3
PLATTSBURGH    LGT SNOW   9   4  80 N20       29.98R WCI -10
$$

NYZ001>004-010>016-019>021-280700-
WEST


CITY           SKY/WX    TMP DP  RH WIND       PRES   REMARKS
NIAGARA FALLS  PTCLDY     3  -2  79 W5        30.12S WCI  -6
BUFFALO        PTCLDY     8   4  83 SW3       30.10S
DUNKIRK        PTCLDY    -2  -5  87 SW6       30.14S WCI -14
JAMESTOWN      PTCLDY     9   3  78 NW6       30.04S WCI  -1
WELLSVILLE     PTCLDY     6  -1  73 NW9       29.96F WCI  -8
ROCHESTER      PTCLDY     2  -3  80 SW5       30.09S WCI  -8
PENN YAN       PTCLDY    10  -1  61 W3        30.03R
$$

             KEY
       WCI = WIND CHILL INDEX
       VSB = VISIBILITY
       HX  = HEAT INDEX
$$



USA.gov is the U.S. government's official web portal to all federal, state and local government web resources and services.